FW2458 Weather Reports


Display with metric or nautical units.
time (UTC)temp
F
wind
direction
speed
MPH
gust
MPH
rain 1hr
in
rain 24hr
in
rain mn
in
humidity
%
barometer
mb
20260502223033 57 71 0.0 3.0 0.00 0.00 0.00 41 1010.1
20260502222532 58 53 0.0 5.0 0.00 0.00 0.00 41 1010.1
20260502222034 58 43 1.0 5.0 0.00 0.00 0.00 40 1010.0
20260502221532 58 163 1.0 5.0 0.00 0.00 0.00 42 1010.1
20260502221032 58 80 1.0 5.0 0.00 0.00 0.00 40 1010.1
20260502220546 57 51 1.0 3.0 0.00 0.00 0.00 40 1010.1
20260502220031 57 164 0.0 4.0 0.00 0.00 0.00 40 1010.1
20260502215528 57 164 1.0 4.0 0.00 0.00 0.00 41 1010.0
20260502215028 57 65 1.0 4.0 0.00 0.00 0.00 42 1010.0
20260502214527 58 134 2.0 4.0 0.00 0.00 0.00 40 1010.1
20260502214023 58 202 1.0 8.0 0.00 0.00 0.00 41 1010.0
20260502213520 58 209 1.0 8.0 0.00 0.00 0.00 39 1010.0
20260502213022 59 155 1.0 8.0 0.00 0.00 0.00 39 1009.9
20260502212521 59 190 2.0 8.0 0.00 0.00 0.00 42 1009.9
20260502212018 59 207 2.0 8.0 0.00 0.00 0.00 37 1009.7
20260502211519 59 168 2.0 8.0 0.00 0.00 0.00 40 1009.6
20260502211019 58 73 2.0 8.0 0.00 0.00 0.00 42 1009.7
20260502210519 58 51 1.0 8.0 0.00 0.00 0.00 41 1009.7
20260502210243 58 134 1.0 4.0 0.00 0.00 0.00 39 1009.7
20260502210008 58 202 1.0 4.0 0.00 0.00 0.00 43 1009.7
20260502205018 58 69 0.0 3.0 0.00 0.00 0.00 44 1009.6
20260502204518 59 69 0.0 3.0 0.00 0.00 0.00 44 1009.6
20260502204239 59 69 1.0 3.0 0.00 0.00 0.00 43 1009.6
20260502203519 59 69 1.0 3.0 0.00 0.00 0.00 41 1009.7
20260502203020 59 77 1.0 6.0 0.00 0.00 0.00 42 1009.7
20260502202518 59 68 1.0 6.0 0.00 0.00 0.00 40 1009.7
20260502202018 59 56 1.0 6.0 0.00 0.00 0.00 41 1009.8
20260502201518 59 13 2.0 6.0 0.00 0.00 0.00 41 1009.8
20260502201019 59 82 2.0 6.0 0.00 0.00 0.00 41 1009.9
20260502200518 59 66 1.0 6.0 0.00 0.00 0.00 41 1010.0
20260502200018 58 80 1.0 5.0 0.00 0.00 0.00 42 1010.1
20260502195956 58 160 2.0 5.0 0.00 0.00 0.00 42 1010.0
20260502195017 58 84 2.0 5.0 0.00 0.00 0.00 43 1010.1
20260502194749 59 109 1.0 5.0 0.00 0.00 0.00 42 1010.2
20260502194017 59 182 1.0 6.0 0.00 0.00 0.00 43 1010.3
20260502193512 59 184 2.0 6.0 0.00 0.00 0.00 41 1010.5
20260502193444 59 48 2.0 6.0 0.00 0.00 0.00 43 1010.4
20260502192456 59 78 2.0 5.0 0.00 0.00 0.00 41 1010.5
20260502191950 59 44 1.0 4.0 0.00 0.00 0.00 39 1010.6
20260502191439 59 161 1.0 5.0 0.00 0.00 0.00 40 1010.7
20260502190933 60 37 1.0 5.0 0.00 0.00 0.00 40 1010.8
20260502190428 60 180 1.0 5.0 0.00 0.00 0.00 41 1010.7
20260502190143 60 111 2.0 5.0 0.00 0.00 0.00 41 1010.8
20260502185413 60 169 1.0 4.0 0.00 0.00 0.00 43 1010.7
20260502184906 60 131 1.0 5.0 0.00 0.00 0.00 41 1010.9
20260502184356 60 52 1.0 7.0 0.00 0.00 0.00 43 1010.9
20260502183849 60 179 1.0 7.0 0.00 0.00 0.00 40 1010.9
20260502183344 60 213 2.0 7.0 0.00 0.00 0.00 41 1010.9
20260502182834 59 143 2.0 6.0 0.00 0.00 0.00 44 1011.1
20260502182328 59 85 2.0 8.0 0.00 0.00 0.00 44 1010.9
20260502181822 59 45 1.0 8.0 0.00 0.00 0.00 45 1011.1
20260502181312 58 206 2.0 8.0 0.00 0.00 0.00 48 1011.1
20260502181026 58 85 2.0 8.0 0.00 0.00 0.00 48 1011.1
20260502180300 58 207 1.0 4.0 0.00 0.00 0.00 48 1011.1
20260502170132 57 74 2.0 8.0 0.00 0.00 0.00 49 1011.6
20260502164100 57 76 2.0 8.0 0.00 0.00 0.00 55 1011.9
20260502163554 57 90 1.0 8.0 0.00 0.00 0.00 49 1011.9
20260502163048 58 182 2.0 8.0 0.00 0.00 0.00 52 1012.0
20260502162538 58 215 2.0 6.0 0.00 0.00 0.00 53 1011.9
20260502162031 58 113 2.0 7.0 0.00 0.00 0.00 56 1012.0
20260502161525 57 22 2.0 7.0 0.00 0.00 0.00 56 1012.0
20260502161016 57 198 2.0 7.0 0.00 0.00 0.00 61 1012.0
20260502160510 56 179 2.0 5.0 0.00 0.00 0.00 59 1012.1
20260502151904 55 83 1.0 7.0 0.00 0.00 0.00 64 1012.4
20260502151410 55 167 2.0 7.0 0.00 0.00 0.00 64 1012.3
20260502150848 55 81 2.0 7.0 0.00 0.00 0.00 63 1012.4
20260502150342 55 84 2.0 7.0 0.00 0.00 0.00 62 1012.4
20260502130511 52 61 1.0 6.0 0.00 0.00 0.00 78 1012.5
20260502123508 51 78 1.0 3.0 0.00 0.00 0.00 82 1012.2
20260502122746 51 70 1.0 5.0 0.00 0.00 0.00 82 1012.1
20260502122248 51 197 1.0 5.0 0.00 0.00 0.00 81 1012.0
20260502121759 51 161 1.0 4.0 0.00 0.00 0.00 82 1012.1
20260502121246 51 198 1.0 6.0 0.00 0.00 0.00 84 1012.0
20260502120748 50 33 0.0 6.0 0.00 0.00 0.00 84 1011.9
20260502120250 50 176 1.0 3.0 0.00 0.00 0.00 87 1012.1
20260502115748 49 176 1.0 3.0 0.00 0.00 0.00 88 1012.0
20260502115248 49 205 0.0 2.0 0.00 0.00 0.00 89 1012.0
20260502114746 49 198 0.0 0.0 0.00 0.00 0.00 90 1012.0
20260502114729 49 198 0.0 0.0 0.00 0.00 0.00 91 1011.9
20260502113746 48 198 0.0 0.0 0.00 0.00 0.00 91 1011.9
20260502113242 48 198 0.0 0.0 0.00 0.00 0.00 91 1012.0
20260502112742 48 198 0.0 0.0 0.00 0.00 0.00 91 1012.1
20260502112241 48 198 0.0 0.0 0.00 0.00 0.00 91 1012.2
20260502111745 48 198 0.0 0.0 0.00 0.00 0.00 91 1012.1
20260502111241 48 198 0.0 0.0 0.00 0.00 0.00 91 1012.1
20260502110740 47 198 0.0 0.0 0.00 0.00 0.00 91 1012.0
20260502110241 47 198 0.0 0.0 0.00 0.00 0.00 91 1011.9
20260502105742 47 198 0.0 0.0 0.00 0.00 0.00 91 1011.9
20260502105234 47 198 0.0 0.0 0.00 0.00 0.00 91 1011.8
20260502104725 46 198 0.0 0.0 0.00 0.00 0.00 91 1011.7
20260502104442 46 198 0.0 0.0 0.00 0.00 0.00 90 1011.7
20260502103717 46 198 0.0 0.0 0.00 0.00 0.00 90 1011.5
20260502103218 46 198 0.0 0.0 0.00 0.00 0.00 89 1011.4
20260502102720 46 198 0.0 0.0 0.00 0.00 0.00 89 1011.4
20260502102215 46 198 0.0 0.0 0.00 0.00 0.00 89 1011.4
20260502101717 46 198 0.0 0.0 0.00 0.00 0.00 88 1011.4
20260502101215 47 198 0.0 0.0 0.00 0.00 0.00 88 1011.4
20260502100715 47 198 0.0 0.0 0.00 0.00 0.00 87 1011.4
20260502100215 47 198 0.0 0.0 0.00 0.00 0.00 87 1011.3
20260502091209 49 198 0.0 0.0 0.00 0.00 0.00 84 1011.2
20260502090710 50 198 0.0 0.0 0.00 0.00 0.00 83 1011.3
20260502090537 50 198 0.0 0.0 0.00 0.00 0.00 83 1011.4
20260502090459 50 198 0.0 4.0 0.00 0.00 0.00 82 1011.5
20260502071345 50 217 0.0 0.0 0.00 0.00 0.00 82 1011.2
20260502070620 50 217 0.0 0.0 0.00 0.00 0.00 82 1011.1
20260502070115 50 217 0.0 1.0 0.00 0.00 0.00 83 1011.1
20260502065605 51 217 0.0 1.0 0.00 0.00 0.00 83 1011.0
20260502065059 51 217 0.0 1.0 0.00 0.00 0.00 82 1011.2
20260502064820 51 217 0.0 1.0 0.00 0.00 0.00 81 1011.3
20260502064043 51 217 0.0 1.0 0.00 0.00 0.00 80 1011.5
20260502063537 51 217 0.0 1.0 0.00 0.00 0.00 80 1011.4
20260502063032 51 217 0.0 0.0 0.00 0.00 0.00 79 1011.5
20260502062745 51 217 0.0 0.0 0.00 0.00 0.00 79 1011.4
20260502062014 51 217 0.0 0.0 0.00 0.00 0.00 79 1011.3
20260502061509 51 217 0.0 0.0 0.00 0.00 0.00 79 1011.3
20260502060959 51 217 0.0 0.0 0.00 0.00 0.00 78 1011.4
20260502060724 51 217 0.0 0.0 0.00 0.00 0.00 78 1011.5
20260502055947 51 217 0.0 0.0 0.00 0.00 0.00 78 1011.5
20260502055708 51 217 0.0 0.0 0.00 0.00 0.00 78 1011.4
20260502054931 51 217 0.0 0.0 0.00 0.00 0.00 78 1011.4
20260502054911 51 217 0.0 0.0 0.00 0.00 0.00 78 1011.4
20260502053915 51 217 0.0 0.0 0.00 0.00 0.00 78 1011.4
20260502053409 51 217 0.0 0.0 0.00 0.00 0.00 78 1011.1
20260502052902 51 217 0.0 0.0 0.00 0.00 0.00 78 1011.4
20260502052848 51 217 0.0 0.0 0.00 0.00 0.00 77 1011.4
20260502051847 51 217 0.0 0.0 0.00 0.00 0.00 77 1011.5
20260502051341 51 217 0.0 0.0 0.00 0.00 0.00 77 1011.5
20260502050831 51 217 0.0 0.0 0.00 0.00 0.00 77 1011.6
20260502050325 51 217 0.0 0.0 0.00 0.00 0.00 76 1011.4
20260502050040 52 217 0.0 0.0 0.00 0.00 0.00 76 1011.4
20260502045308 52 217 0.0 0.0 0.00 0.00 0.00 75 1011.4
20260502044803 52 217 0.0 0.0 0.00 0.00 0.00 74 1011.5
20260502044257 52 217 0.0 0.0 0.00 0.00 0.00 74 1011.5
20260502044013 52 217 0.0 0.0 0.00 0.00 0.00 73 1011.5
20260502043241 52 217 0.0 0.0 0.00 0.00 0.00 73 1011.5
20260502042735 52 217 0.0 0.0 0.00 0.00 0.00 73 1011.5
20260502042225 53 217 0.0 0.0 0.00 0.00 0.00 73 1011.5
20260502041722 53 217 0.0 0.0 0.00 0.00 0.00 72 1011.2
20260502041212 53 217 0.0 0.0 0.00 0.00 0.00 71 1011.4
20260502040703 53 217 0.0 0.0 0.00 0.00 0.00 71 1011.6
20260502040157 53 217 0.0 0.0 0.00 0.00 0.00 71 1011.5
20260502035651 53 217 0.0 0.0 0.00 0.00 0.00 71 1011.4
20260502035141 53 217 0.0 0.0 0.00 0.00 0.00 69 1011.4
20260502034635 53 217 0.0 0.0 0.00 0.00 0.00 69 1011.3
20260502034128 53 217 0.0 0.0 0.00 0.00 0.00 69 1011.4
20260502033845 53 217 0.0 0.0 0.00 0.00 0.00 68 1011.3
20260502033113 53 217 0.0 0.0 0.00 0.00 0.00 69 1011.3
20260502032620 53 217 0.0 0.0 0.00 0.00 0.00 68 1011.4
20260502032057 53 217 0.0 0.0 0.00 0.00 0.00 68 1011.5
20260502031551 53 217 0.0 0.0 0.00 0.00 0.00 68 1011.4
20260502031044 53 217 0.0 0.0 0.00 0.00 0.00 68 1011.4
20260502030535 53 217 0.0 0.0 0.00 0.00 0.00 68 1011.3
20260502030028 54 217 0.0 0.0 0.00 0.00 0.00 68 1011.4
20260502030010 54 217 0.0 0.0 0.00 0.00 0.00 67 1011.5
20260502025013 54 217 0.0 0.0 0.00 0.00 0.00 67 1011.4
20260502024736 54 217 0.0 0.0 0.00 0.00 0.00 67 1011.6
20260502024000 54 217 0.0 0.0 0.00 0.00 0.00 66 1011.6
20260502023454 54 217 0.0 0.0 0.00 0.00 0.00 66 1011.7
20260502022945 54 217 0.0 0.0 0.00 0.00 0.00 66 1011.6
20260502022439 54 217 0.0 0.0 0.00 0.00 0.00 68 1011.6
20260502021929 54 217 0.0 0.0 0.00 0.00 0.00 67 1011.5
20260502021423 54 217 0.0 0.0 0.00 0.00 0.00 66 1011.5
20260502020917 54 217 0.0 0.0 0.00 0.00 0.00 67 1011.6
20260502020407 54 217 0.0 0.0 0.00 0.00 0.00 66 1011.6
20260502015901 54 217 0.0 0.0 0.00 0.00 0.00 66 1011.5
20260502015617 54 217 0.0 0.0 0.00 0.00 0.00 66 1011.3
20260502014844 55 217 0.0 0.0 0.00 0.00 0.00 66 1011.5
20260502014338 55 217 0.0 0.0 0.00 0.00 0.00 66 1011.5
20260502013833 55 217 0.0 0.0 0.00 0.00 0.00 65 1011.3
20260502013547 55 217 0.0 0.0 0.00 0.00 0.00 64 1011.3
20260502012817 55 217 0.0 0.0 0.00 0.00 0.00 65 1011.3
20260502012311 56 217 0.0 0.0 0.00 0.00 0.00 62 1011.2
20260502011801 56 217 0.0 0.0 0.00 0.00 0.00 63 1011.1
20260502011255 56 217 0.0 0.0 0.00 0.00 0.00 62 1011.0
20260502010749 56 217 0.0 0.0 0.00 0.00 0.00 61 1010.9
20260502010239 57 217 0.0 0.0 0.00 0.00 0.00 60 1010.9
20260502005733 57 217 0.0 0.0 0.00 0.00 0.00 61 1010.9
20260502005227 57 217 0.0 0.0 0.00 0.00 0.00 60 1010.8
20260502004211 57 217 0.0 0.0 0.00 0.00 0.00 57 1010.9
20260502003705 58 217 0.0 0.0 0.00 0.00 0.00 57 1010.8
20260502003155 58 217 0.0 0.0 0.00 0.00 0.00 56 1010.7
20260502002649 58 217 0.0 0.0 0.00 0.00 0.00 55 1010.7
20260502002143 58 217 0.0 0.0 0.00 0.00 0.00 54 1010.7
20260502001633 59 217 0.0 0.0 0.00 0.00 0.00 54 1010.6
20260502001345 59 217 0.0 0.0 0.00 0.00 0.00 52 1010.6
20260502000634 59 217 0.0 1.0 0.00 0.00 0.00 52 1010.6
20260502000336 60 217 0.0 1.0 0.00 0.00 0.00 51 1010.5
20260501235605 60 217 0.0 1.0 0.00 0.00 0.00 50 1010.5
20260501235059 60 217 0.0 3.0 0.00 0.00 0.00 50 1010.3
20260501234549 60 217 0.0 3.0 0.00 0.00 0.00 48 1010.3
20260501234043 60 216 0.0 3.0 0.00 0.00 0.00 49 1010.3
20260501233537 61 216 1.0 3.0 0.00 0.00 0.00 49 1010.2
20260501233026 61 217 0.0 2.0 0.00 0.00 0.00 47 1010.1
20260501232523 61 219 1.0 4.0 0.00 0.00 0.00 48 1010.1
20260501232014 61 211 1.0 4.0 0.00 0.00 0.00 47 1010.0
20260501231505 61 225 1.0 4.0 0.00 0.00 0.00 47 1010.0
20260501231223 61 98 1.0 4.0 0.00 0.00 0.00 47 1009.9
20260501230453 61 214 1.0 5.0 0.00 0.00 0.00 47 1009.9
20260501230208 61 213 1.0 5.0 0.00 0.00 0.00 46 1009.8
20260501225436 62 31 1.0 5.0 0.00 0.00 0.00 46 1009.8
20260501225152 62 127 1.0 4.0 0.00 0.00 0.00 47 1009.8
20260501224427 62 138 1.0 4.0 0.00 0.00 0.00 47 1009.7
20260501223922 62 156 1.0 6.0 0.00 0.00 0.00 47 1009.6
20260501223423 62 232 1.0 6.0 0.00 0.00 0.00 46 1009.6
20260501223146 62 144 1.0 6.0 0.00 0.00 0.00 45 1009.6